This is the latest recevied weather packets stored in our database for station/object YD1OCG-15. If no packets are shown the sender has not sent any weather packets the latest 10 day(s).
| Time | Temp. | Humidity | Pressure | Rain* | Wind** | Luminosity | Snow |
|---|---|---|---|---|---|---|---|
| 1788596004 | 31.67° C | 47% | 1011 hPa | - | - | - | - |
| 1788592164 | 31.67° C | 49% | 1012 hPa | - | - | - | - |
| 1788590364 | 34.44° C | 10% | - | - | - | - | - |
| 1788586764 | 33.33° C | 85% | 1013 hPa | - | - | - | - |
| 1788565164 | 25° C | 72% | 1018 hPa | - | - | - | - |
| 1788563364 | 24.44° C | 73% | 1016 hPa | - | - | - | - |
| 1788548964 | 25.56° C | 67% | 1016 hPa | - | - | - | - |
| 1788541764 | 22.78° C | 69% | 1017 hPa | - | - | - | - |
| 1788538164 | 26.11° C | 68% | 1017 hPa | - | - | - | - |
| 1788536364 | 26.67° C | 76% | 1017 hPa | - | - | - | - |
| 1788532763 | 27.22° C | 77% | 1017 hPa | - | - | - | - |
| 1788530964 | 26.67° C | 71% | 1016 hPa | - | - | - | - |
| 1788529164 | 27.22° C | 74% | 1017 hPa | - | - | - | - |
| 1788527363 | 26.67° C | 68% | 1015 hPa | - | - | - | - |
| 1788521964 | 27.78° C | 72% | 1015 hPa | - | - | - | - |
| 1788520164 | 28.33° C | 66% | 1014 hPa | - | - | - | - |
| 1788518363 | 28.89° C | 10% | - | - | - | - | - |
| 1788514764 | 29.44° C | 40% | 1012 hPa | - | - | - | - |
| 1788512964 | 30.56° C | 60% | 1012 hPa | - | - | - | - |
| 1788511164 | 30.56° C | 58% | 1012 hPa | - | - | - | - |
| 1788509364 | 31.11° C | 59% | 1012 hPa | - | - | - | - |
| 1788507563 | 31.11° C | 59% | 1011 hPa | - | - | - | - |
| 1788505763 | 31.11° C | 59% | 1012 hPa | - | - | - | - |
| 1788503963 | 31.11° C | 61% | 1012 hPa | - | - | - | - |
| 1788502945 | 30.56° C | 61% | 1013 hPa | - | - | - | - |
* Rain since midnight (hover to see other rain measurements)
** Current wind speed in m/s (hover to see current wind gust speed)